Domov               UVHVVR             MKGP            O straneh              
ZDRAVSTVENO VARSTVO RASTLIN
  MREŽA AGROMET. POSTAJ
 ► PROGNOSTIČNA OBVESTILA
AGROMETEOROLOŠKI PODATKI -
ARSO
OBVLADOVANJE TVEGANJ ZARADI
NEUGODNIH VREMENSKIH RAZMER
  ► NARAVNE NESREČE
  ► SUŠA/MOČA
  ► NAMAKANJE
  ► ŽLED (gozdarstvo)
KARTOGRAFSKI PRIKAZI
SPLETNE POVEZAVE
PROJEKTI IN PUBLIKACIJE

AGROMETEOROLOŠKA MREŽA: VREMENSKE POSTAJE IN FENOLOŠKA OPAZOVANJA

Pregled podatkov za lokacijo Ljubljana KIS, meteorološka postaja 27260

Pregled senzorjev na lokaciji

ID Ime Zadnja
vrednost
Datum in čas
zadnje
spremembe
(Lokalni čas)
Tip
senzorja
1397 Omočenost lista (U) 0 U 18.10.2019 18:30 A730WET
1398 Padavine (mm) 0 mm 18.10.2019 18:30 Generic
1396 Relativna vlaga 2 m (% RH) 66.57 % RH 18.10.2019 18:30 Generic 0 - 100 %
3177 Temperatura 2 m (°C) 16.86 °C 18.10.2019 18:30 Generic -40 - +60 °C

Pregled podatkov zadnjih 24 ur

Zap.
št.
Datum in čas
(Centralno
evropski čas)
Ljubljana KIS
Omočenost
lista
Padavine Relativna
vlaga
2
m
Temperatura
2
m
1 18.10.2019 18:30
2 18.10.2019 18:00
3 18.10.2019 17:30 0 0 66.6 17
4 18.10.2019 17:00 0 0 66.8 17.3
5 18.10.2019 16:30 0 0 67.5 17.4
6 18.10.2019 16:00 0 0 67.4 17.4
7 18.10.2019 15:30 0 0 67.2 17.5
8 18.10.2019 15:00 0 0 66.6 18.1
9 18.10.2019 14:30 0 0 69.5 17.6
10 18.10.2019 14:00 0 0 68.5 18.2
11 18.10.2019 13:30 0 0 71.1 17.1
12 18.10.2019 13:00 0 0 70 17.2
13 18.10.2019 12:30 1.5 0 72.6 16.8
14 18.10.2019 12:00 1.2 0 71.5 17.3
15 18.10.2019 11:30 0 0 72.5 17
16 18.10.2019 11:00 0 0 71.6 16.2
17 18.10.2019 10:30 0 0 72.1 15.6
18 18.10.2019 10:00 0 0 72.3 15.1
19 18.10.2019 09:30 0 0 77 13.6
20 18.10.2019 09:00 0 0 82.8 12.1
21 18.10.2019 08:30 9.3 0 88.6 10.9
22 18.10.2019 08:00 10 0 91.5 10.3
23 18.10.2019 07:30 10 0 93.3 10.1
24 18.10.2019 07:00 10 0 94.3 10.1
25 18.10.2019 06:30 10 0 93.9 10.3
26 18.10.2019 06:00 10 0 92.3 10.3
27 18.10.2019 05:30 10 0 92.4 10.5
28 18.10.2019 05:00 10 0 94.2 10.2
29 18.10.2019 04:30 10 0 95.1 9.9
30 18.10.2019 04:00 9.9 0 94.5 10
31 18.10.2019 03:30 4.1 0 92.7 10.4
32 18.10.2019 03:00 0.7 0 88.1 11.5
33 18.10.2019 02:30 0 0 84 12.9
34 18.10.2019 02:00 0.1 0 85.8 12.3
35 18.10.2019 01:30 0 0 83.6 12.9
36 18.10.2019 01:00 0 0 83.9 12.8
37 18.10.2019 00:30 0 0 82.2 13.1
38 18.10.2019 00:00 0 0 80.4 13.5
39 17.10.2019 23:30 0 0 81.1 13.2
40 17.10.2019 23:00 0 0 78.9 13.5
41 17.10.2019 22:30 0 0 79.4 13.6
42 17.10.2019 22:00 0 0 79.2 13.5
43 17.10.2019 21:30 0 0 78.6 13.7
44 17.10.2019 21:00 0 0 78.5 14
45 17.10.2019 20:30 0 0 79.3 14.1
46 17.10.2019 20:00 0 0 78.3 14.6
47 17.10.2019 19:30 0 0 78 14.8
48 17.10.2019 19:00 0 0 75.5 15.3
© 2011 Ministrstvo za kmetijstvo, gozdarstvo in prehrano. Vse pravice pridržane.